Hourly Weather Gogolevka

Today, 25 November, Wednesday

Time Temperature Precipitation Wind Pressure Humidity
00:00 0°C° 0 mm 3 mps 744 mmHg 93%
01:00 0°C° 0 mm 3 mps 744 mmHg 95%
02:00 +2°C° 0 mm 1 mps 744 mmHg 98%
03:00 +2°C° 0.2 mm 1 mps 744 mmHg 98%
04:00 +3°C° 0.2 mm 1 mps 743 mmHg 98%
05:00 +3°C° 0.2 mm 1 mps 743 mmHg 98%
06:00 +3°C° 1 mm 1 mps 743 mmHg 98%
07:00 +2°C° 1 mm 1 mps 744 mmHg 98%
08:00 +1°C° 0 mm 2 mps 744 mmHg 97%
09:00 +2°C° 0.5 mm 1 mps 744 mmHg 97%
10:00 +3°C° 0.5 mm 1 mps 744 mmHg 97%
11:00 +3°C° 0.5 mm 1 mps 744 mmHg 97%
12:00 +3°C° 0 mm 1 mps 744 mmHg 97%
13:00 +3°C° 0 mm 1 mps 745 mmHg 97%
14:00 +2°C° 0 mm 0 mps 745 mmHg 96%
15:00 +2°C° 0 mm 0 mps 745 mmHg 96%
16:00 +3°C° 0 mm 1 mps 746 mmHg 96%
17:00 +2°C° 0 mm 1 mps 746 mmHg 97%
18:00 +2°C° 0 mm 1 mps 746 mmHg 96%
19:00 +2°C° 0 mm 1 mps 747 mmHg 96%
20:00 +2°C° 0 mm 1 mps 747 mmHg 96%
21:00 +2°C° 0 mm 1 mps 747 mmHg 96%
22:00 +2°C° 0 mm 1 mps 747 mmHg 95%
23:00 +1°C° 0 mm 2 mps 747 mmHg 95%

Tomorrow, 26 November, Thursday

Time Temperature Precipitation Wind Pressure Humidity
00:00 +1°C° 0 mm 2 mps 747 mmHg 96%
01:00 0°C° 0 mm 3 mps 747 mmHg 96%
02:00 0°C° 0 mm 3 mps 747 mmHg 96%
03:00 +1°C° 0.2 mm 3 mps 747 mmHg 96%
04:00 +1°C° 0.2 mm 3 mps 747 mmHg 97%
05:00 0°C° 0.2 mm 4 mps 747 mmHg 97%
06:00 +2°C° 0.3 mm 3 mps 747 mmHg 97%
07:00 +2°C° 0.3 mm 3 mps 747 mmHg 98%
08:00 +3°C° 0.3 mm 3 mps 747 mmHg 98%
09:00 +3°C° 0 mm 3 mps 746 mmHg 97%
10:00 +4°C° 0 mm 4 mps 746 mmHg 97%
11:00 +4°C° 0 mm 4 mps 746 mmHg 96%
12:00 +4°C° 0 mm 4 mps 745 mmHg 94%
13:00 +4°C° 0 mm 4 mps 745 mmHg 92%
14:00 +4°C° 0 mm 4 mps 745 mmHg 90%
15:00 +3°C° 0 mm 4 mps 745 mmHg 90%
16:00 +3°C° 0 mm 4 mps 745 mmHg 90%
17:00 +1°C° 0 mm 4 mps 744 mmHg 90%
18:00 0°C° 0 mm 4 mps 744 mmHg 89%
19:00 0°C° 0 mm 4 mps 744 mmHg 88%
20:00 -1°C° 0 mm 4 mps 744 mmHg 87%
21:00 -1°C° 0 mm 4 mps 743 mmHg 87%
22:00 -2°C° 0 mm 4 mps 743 mmHg 88%
23:00 -2°C° 0 mm 5 mps 743 mmHg 89%

Day after tomorrow, 27 November, Friday

Time Temperature Precipitation Wind Pressure Humidity
00:00 -2°C° 0 mm 4 mps 742 mmHg 89%
01:00 -2°C° 0 mm 4 mps 742 mmHg 90%
02:00 -2°C° 0 mm 4 mps 742 mmHg 90%
03:00 -2°C° 0 mm 4 mps 742 mmHg 90%
04:00 -2°C° 0 mm 5 mps 741 mmHg 90%
05:00 -2°C° 0 mm 5 mps 741 mmHg 89%
06:00 -2°C° 0 mm 4 mps 740 mmHg 89%
07:00 -2°C° 0 mm 4 mps 740 mmHg 89%
08:00 -2°C° 0 mm 4 mps 740 mmHg 89%
09:00 -1°C° 0.1 mm 4 mps 740 mmHg 91%
10:00 -1°C° 0.1 mm 5 mps 740 mmHg 92%
11:00 -1°C° 0.1 mm 5 mps 739 mmHg 93%
12:00 0°C° 0.1 mm 5 mps 739 mmHg 93%
13:00 0°C° 0.1 mm 5 mps 739 mmHg 92%
14:00 +1°C° 0.1 mm 5 mps 739 mmHg 91%
15:00 +1°C° 0.1 mm 5 mps 739 mmHg 93%
16:00 0°C° 0.1 mm 4 mps 739 mmHg 95%
17:00 0°C° 0.1 mm 4 mps 739 mmHg 97%
18:00 0°C° 0.2 mm 4 mps 739 mmHg 97%
19:00 0°C° 0.2 mm 4 mps 739 mmHg 97%
20:00 +1°C° 0.2 mm 3 mps 740 mmHg 97%
21:00 +1°C° 0.1 mm 3 mps 740 mmHg 95%
22:00 0°C° 0.1 mm 3 mps 741 mmHg 93%
23:00 0°C° 0.1 mm 3 mps 741 mmHg 91%

28 November, Saturday

Time Temperature Precipitation Wind Pressure Humidity
00:00 -1°C° 0.1 mm 3 mps 741 mmHg 92%
01:00 -1°C° 0.1 mm 3 mps 742 mmHg 94%
02:00 -2°C° 0.1 mm 2 mps 742 mmHg 95%
03:00 -2°C° 0.1 mm 2 mps 743 mmHg 95%
04:00 -2°C° 0.1 mm 2 mps 743 mmHg 95%
05:00 -2°C° 0.1 mm 2 mps 743 mmHg 96%
06:00 0°C° 0 mm 1 mps 744 mmHg 95%
07:00 0°C° 0 mm 1 mps 744 mmHg 95%
08:00 -1°C° 0 mm 1 mps 745 mmHg 94%
09:00 0°C° 0 mm 1 mps 745 mmHg 91%
10:00 0°C° 0 mm 1 mps 746 mmHg 87%
11:00 +1°C° 0 mm 1 mps 746 mmHg 83%
12:00 +1°C° 0 mm 1 mps 746 mmHg 81%
13:00 +1°C° 0 mm 1 mps 747 mmHg 78%
14:00 +1°C° 0 mm 1 mps 747 mmHg 76%
15:00 +1°C° 0 mm 1 mps 747 mmHg 77%
16:00 +1°C° 0 mm 1 mps 748 mmHg 78%
17:00 0°C° 0 mm 0 mps 748 mmHg 78%
18:00 +1°C° 0 mm 1 mps 748 mmHg 79%
19:00 +1°C° 0 mm 1 mps 749 mmHg 79%
20:00 +1°C° 0 mm 1 mps 749 mmHg 79%
21:00 +1°C° 0 mm 1 mps 750 mmHg 79%
22:00 +1°C° 0 mm 1 mps 750 mmHg 79%
23:00 +1°C° 0 mm 1 mps 750 mmHg 79%

29 November, Sunday

Time Temperature Precipitation Wind Pressure Humidity
00:00 +1°C° 0 mm 1 mps 750 mmHg 78%
01:00 +1°C° 0 mm 1 mps 750 mmHg 78%
02:00 -1°C° 0 mm 2 mps 750 mmHg 77%
03:00 -2°C° 0 mm 2 mps 750 mmHg 79%
04:00 -2°C° 0 mm 2 mps 750 mmHg 81%
05:00 -2°C° 0 mm 2 mps 750 mmHg 83%
06:00 -2°C° 0 mm 3 mps 750 mmHg 85%
07:00 -4°C° 0 mm 3 mps 750 mmHg 88%
08:00 -4°C° 0 mm 4 mps 750 mmHg 90%
09:00 -4°C° 0.1 mm 4 mps 750 mmHg 90%
10:00 -4°C° 0.1 mm 5 mps 749 mmHg 89%
11:00 -4°C° 0.1 mm 5 mps 749 mmHg 88%
12:00 -2°C° 0.3 mm 5 mps 749 mmHg 91%
13:00 -2°C° 0.3 mm 5 mps 748 mmHg 93%
14:00 -1°C° 0.3 mm 5 mps 748 mmHg 96%
15:00 -2°C° 0.4 mm 6 mps 747 mmHg 96%
16:00 -1°C° 0.4 mm 6 mps 747 mmHg 96%
17:00 +1°C° 0.4 mm 6 mps 747 mmHg 97%
18:00 -1°C° 0.6 mm 6 mps 746 mmHg 97%
19:00 -1°C° 0.6 mm 6 mps 746 mmHg 96%
20:00 -1°C° 0.6 mm 6 mps 746 mmHg 96%
21:00 +1°C° 0.3 mm 6 mps 746 mmHg 96%
22:00 +1°C° 0.3 mm 6 mps 746 mmHg 95%
23:00 +1°C° 0.3 mm 6 mps 746 mmHg 94%

30 November, Monday

Time Temperature Precipitation Wind Pressure Humidity
00:00 +1°C° 0.1 mm 6 mps 746 mmHg 94%
01:00 +1°C° 0.1 mm 5 mps 746 mmHg 94%
02:00 +1°C° 0.1 mm 5 mps 745 mmHg 94%
03:00 0°C° 0 mm 5 mps 746 mmHg 93%
04:00 0°C° 0 mm 5 mps 746 mmHg 92%
05:00 -1°C° 0 mm 5 mps 746 mmHg 91%
06:00 -2°C° 0 mm 5 mps 746 mmHg 90%
07:00 -2°C° 0 mm 5 mps 747 mmHg 89%
08:00 -4°C° 0 mm 5 mps 747 mmHg 88%
09:00 -2°C° 0 mm 5 mps 747 mmHg 86%
10:00 -2°C° 0 mm 5 mps 747 mmHg 84%
11:00 -2°C° 0 mm 5 mps 748 mmHg 83%
12:00 -3°C° 0 mm 6 mps 748 mmHg 83%
13:00 -3°C° 0 mm 6 mps 748 mmHg 84%
14:00 -3°C° 0 mm 6 mps 748 mmHg 84%
15:00 -3°C° 0 mm 6 mps 749 mmHg 86%
16:00 -2°C° 0 mm 5 mps 749 mmHg 89%
17:00 -2°C° 0 mm 5 mps 749 mmHg 91%
18:00 -2°C° 0 mm 5 mps 749 mmHg 92%
19:00 -2°C° 0 mm 5 mps 750 mmHg 93%
20:00 -2°C° 0 mm 5 mps 750 mmHg 94%
21:00 -2°C° 0 mm 5 mps 750 mmHg 93%
22:00 -2°C° 0 mm 4 mps 751 mmHg 92%
23:00 -2°C° 0 mm 4 mps 751 mmHg 91%
Show more

We Need Your Consent

Meteoprog and our Service Providers may store and access personal data such as cookies, device identifiers or other similar technologies on your device and process such data to personalise content and ads, as well as provide social media features and to analyse the traffic.

  • Store and/or access information on your device

    Cookies, device identifiers or other information can be stored or accessed on your device for the purposes indicated above.

  • Personalised ads and content, ad and content measurement, audience insights, and products development

    Ads and content can be personalised based on a profile. More data can be added to better personalise ads and content. Ad and content performance can be measured. Insights about the audience who saw the ads and content can be derived. Such data can be used to develop or improve user’s experience, systems and software.

By clicking ‘I Agree’ you will allow the use of indicated cookies, device identifiers, web beacons or other similar technologies. Your settings can be changed in the browser on your device.

For certain purposes, legitimate interests may be relied on, rather than consent. You can read more about this in our Privacy and Cookie Policy.